Notices

What's New in latest Release from April 7th, 2021:

- Updated Glossary, including Speed of Maximum Gust, and Total Hourly Precipitation

- Updated national and regional climate services offices contacts and prices information

- Addition of station inventory lists for 1981-2010, 1971-2000, and 1961-1990 Normals.

If you haven't already, please take our survey and provide feedback about our website: https://eccc.sondage-survey.ca/f/LanguageSelection.aspx?s=442ca660-fcf1-47c0-95a9-59707d6fd709

Hourly Data Report for September 27, 2017

TORONTO CITY
ONTARIO

43°40'00.000" N
79°24'00.000" W
112.50 m
6158355
71508
XTO

Download Data

Hourly Data (September 2017)
Hourly Data Report for September 27, 2017
TIME
LST
Temp Definition
°C
Dew Point Definition
°C
Rel Hum Definition
%
Precip. Amount Definition
mm

Wind Dir Definition
10's deg

Wind Spd Definition
km/h
Visibility Definition
km
Stn Press Definition
kPa
Hmdx Definition


Wind Chill Definition


Weather Definition


00:00 23.2 19.3 79 0.0 LegendMM LegendMM   99.93 30   LegendNANA
01:00 22.6 18.8 79 0.0 LegendMM LegendMM   99.92 29   LegendNANA
02:00 22.3 17.9 76 0.0 LegendMM LegendMM   99.87 28   LegendNANA
03:00 21.9 17.7 77 0.0 LegendMM LegendMM   99.84 28   LegendNANA
04:00 21.8 17.4 76 0.0 LegendMM LegendMM   99.83 27   LegendNANA
05:00 21.7 16.6 73 0.0 LegendMM LegendMM   99.81 27   LegendNANA
06:00 22.0 17.1 74 0.0 LegendMM LegendMM   99.80 27   LegendNANA
07:00 22.4 17.5 74 0.0 LegendMM LegendMM   99.78 28   LegendNANA
08:00 23.8 16.9 65 0.0 LegendMM LegendMM   99.76 29   LegendNANA
09:00 25.6 17.1 59 0.0 LegendMM LegendMM   99.73 31   LegendNANA
10:00 26.4 17.5 58 0.0 LegendMM LegendMM   99.73 32   LegendNANA
11:00 27.7 18.6 58 0.0 LegendMM LegendMM   99.71 34   LegendNANA
12:00 28.8 15.6 45 0.0 LegendMM LegendMM   99.71 33   LegendNANA
13:00 27.5 16.9 53 0.0 LegendMM LegendMM   99.71 33   LegendNANA
14:00 25.7 17.1 59 0.0 LegendMM LegendMM   99.70 31   LegendNANA
15:00 23.5 16.9 66 0.0 LegendMM LegendMM   99.77 29   LegendNANA
16:00 23.0 12.8 53 0.0 LegendMM LegendMM   99.78 26   LegendNANA
17:00 22.2 11.9 52 0.0 LegendMM LegendMM   99.86     LegendNANA
18:00 20.6 10.2 51 0.0 LegendMM LegendMM   99.91     LegendNANA
19:00 19.4 9.6 53 0.0 LegendMM LegendMM   99.99     LegendNANA
20:00 18.2 8.7 54 0.0 LegendMM LegendMM   100.02     LegendNANA
21:00 17.2 8.7 57 0.0 LegendMM LegendMM   100.06     LegendNANA
22:00 16.8 8.8 59 0.0 LegendMM LegendMM   100.09     LegendNANA
23:00 16.4 8.4 59 0.0 LegendMM LegendMM   100.11     LegendNANA

Notes on Data Quality.

Legend

  • E = Estimated
  • M = Missing
  • NA = Not Available*
  • [empty] = Indicates an unobserved value
Date modified: